Back to catalog

IRIDE-MS2-HEO-10

AliveScienceSSO
NORAD 68982·PAYLOAD·🇹🇼 Taiwan

Launched May 3, 2026 from Vandenberg Space Force Base

Loading…

Next Passes (next 24 hours)

TLE

FreshSource: Space-Track

Epoch: Sep 14, 2026, 15:59 UTC

1 68982U 26100C   26257.66644220  .00001218  00000-0  12758-3 0  9992
2 68982  97.7205 153.2474 0003324 200.9375 159.1709 14.91366404 20034

Track IRIDE-MS2-HEO-10 in real time with AllMySat

Download on the App Store